Edenton, NC

5:35 PM EST on November 19, 2017 (GMT -0500)
Northeastern Regional

Weather History for KEDE - March, 2013

Change the Weather History Date:

Wednesday, March 6, 2013

  Actual Average Record
Temperature  
Mean Temperature 44 °F -  
Max Temperature 53 °F 62 °F 81 °F (1967)
Min Temperature 37 °F 40 °F 17 °F (1960)
Degree Days  
Heating Degree Days 20    
Moisture  
Dew Point 40 °F    
Average Humidity 92    
Maximum Humidity 100    
Minimum Humidity 73    
Precipitation  
Precipitation 0.29 in - - ()
Sea Level Pressure  
Sea Level Pressure 29.57 in    
Wind  
Wind Speed 14 mph (WNW)    
Max Wind Speed 28 mph    
Max Gust Speed 39 mph    
Visibility 8 miles    
Events Rain    
Averages and records for this station are not official NWS values.
T = Trace of Precipitation, MM = Missing Value Source: NWS Daily Summary

Daily Weather History Graph

Daily Weather History Graph

Search for Another Location

Airport or City:

Trip Planner

Search our weather history database for the weather conditions in past years. The results will help you decide how hot, cold, wet, or windy it might be!

Date:

Astronomy

Mar. 06, 2013 Rise Set
Actual Time 6:29 AM EST 6:06 PM EST
Civil Twilight 6:03 AM EST 6:31 PM EST
Nautical Twilight 5:34 AM EST 7:01 PM EST
Astronomical Twilight 5:04 AM EST 7:31 PM EST
Moon 2:28 AM EST (3/6) 12:53 PM EST (3/6)
Length of Visible Light 12h 27m
Length of Day
11h 36m
Waning Crescent, 30% of the Moon is Illuminated
Mar 6
Waning Crescent
Mar 11
New
Mar 19
First Quarter
Mar 27
Full
Apr 3
Last Quarter

Hourly Weather History & Observations

Time (EST) Temp. Windchill Dew Point Humidity Pressure Visibility Wind Dir Wind Speed Gust Speed Precip Events Conditions
12:15 AM 46.6 °F - 45.7 °F 97% 29.64 in 5.0 mi East 10.4 mph - 0.08 in Rain Rain
12:35 AM 47.3 °F - 46.4 °F 97% 29.63 in 5.0 mi East 11.5 mph - 0.10 in Rain Light Rain
12:55 AM 47.7 °F - 47.3 °F 99% 29.60 in 5.0 mi ESE 11.5 mph 17.3 mph 0.15 in Rain Light Rain
1:15 AM 48.4 °F - 47.8 °F 98% 29.58 in 7.0 mi ESE 9.2 mph - N/A Rain Light Rain
1:35 AM 49.5 °F - 48.9 °F 98% 29.57 in 10.0 mi ESE 8.1 mph - N/A   Overcast
1:55 AM 50.0 °F - 50.0 °F 100% 29.55 in 10.0 mi ESE 5.8 mph - N/A   Overcast
2:15 AM 50.9 °F - 50.9 °F 100% 29.53 in 10.0 mi SE 5.8 mph - N/A   Overcast
2:35 AM 51.8 °F - 51.8 °F 100% 29.51 in 10.0 mi SE 3.5 mph - N/A   Overcast
2:55 AM 52.5 °F - 52.5 °F 100% 29.49 in 10.0 mi ESE 3.5 mph - N/A   Overcast
3:15 AM 52.2 °F - 52.2 °F 100% 29.48 in 10.0 mi Calm Calm - N/A   Overcast
3:35 AM 51.8 °F - 51.8 °F 100% 29.47 in 7.0 mi Calm Calm - N/A   Mostly Cloudy
3:55 AM 51.8 °F - 51.8 °F 100% 29.46 in 1.5 mi Calm Calm - N/A   Mostly Cloudy
4:15 AM 50.2 °F - 50.2 °F 100% 29.45 in 0.8 mi Calm Calm - N/A   Mostly Cloudy
4:35 AM 52.3 °F - 52.3 °F 100% 29.45 in 10.0 mi SW 4.6 mph - N/A   Mostly Cloudy
4:55 AM 52.9 °F - 52.9 °F 100% 29.45 in 10.0 mi WSW 9.2 mph - N/A   Mostly Cloudy
5:15 AM 52.7 °F - 52.5 °F 99% 29.44 in 10.0 mi West 5.8 mph - N/A   Scattered Clouds
5:35 AM 51.8 °F - 51.4 °F 99% 29.44 in 10.0 mi West 9.2 mph - N/A   Scattered Clouds
5:55 AM 51.8 °F - 50.4 °F 95% 29.43 in 10.0 mi West 10.4 mph - N/A   Mostly Cloudy
6:15 AM 50.9 °F - 49.5 °F 95% 29.44 in 10.0 mi West 13.8 mph - N/A   Overcast
6:55 AM 47.1 °F - 45.3 °F 93% 29.45 in 10.0 mi West 16.1 mph 23.0 mph N/A   Overcast
7:15 AM 44.2 °F 35.9 °F 42.1 °F 92% 29.46 in 10.0 mi West 20.7 mph 29.9 mph N/A   Overcast
7:35 AM 42.8 °F 34.3 °F 40.5 °F 91% 29.47 in 10.0 mi West 19.6 mph 27.6 mph N/A   Overcast
7:55 AM 42.4 °F 34.4 °F 39.9 °F 91% 29.48 in 10.0 mi West 17.3 mph 27.6 mph N/A   Overcast
8:15 AM 41.7 °F 33.4 °F 38.1 °F 87% 29.48 in 10.0 mi West 17.3 mph 29.9 mph N/A   Overcast
8:35 AM 41.0 °F 32.8 °F 36.7 °F 85% 29.49 in 10.0 mi West 16.1 mph 28.8 mph N/A   Overcast
8:55 AM 40.3 °F 31.6 °F 34.7 °F 80% 29.49 in 10.0 mi West 17.3 mph 31.1 mph N/A   Overcast
9:15 AM 40.8 °F 32.9 °F 34.9 °F 79% 29.49 in 10.0 mi West 15.0 mph 32.2 mph N/A   Overcast
9:35 AM 40.5 °F 30.9 °F 34.5 °F 79% 29.49 in 10.0 mi West 20.7 mph 26.5 mph N/A   Overcast
9:55 AM 40.6 °F 30.9 °F 34.0 °F 77% 29.49 in 10.0 mi West 21.9 mph 32.2 mph N/A   Overcast
10:15 AM 40.8 °F 31.4 °F 33.6 °F 76% 29.49 in 10.0 mi West 20.7 mph 28.8 mph N/A   Overcast
10:35 AM 41.0 °F 32.5 °F 33.6 °F 75% 29.49 in 10.0 mi West 17.3 mph 29.9 mph N/A   Overcast
10:55 AM 40.8 °F 32.0 °F 34.0 °F 77% 29.49 in 10.0 mi West 18.4 mph 32.2 mph N/A   Overcast
11:15 AM 41.5 °F 32.4 °F 33.6 °F 73% 29.48 in 10.0 mi West 20.7 mph 29.9 mph N/A   Overcast
11:35 AM 40.8 °F 31.7 °F 33.8 °F 76% 29.48 in 10.0 mi West 19.6 mph 33.4 mph N/A   Overcast
11:55 AM 39.4 °F 29.2 °F 34.9 °F 84% 29.47 in 7.0 mi West 21.9 mph 32.2 mph N/A   Overcast
12:15 PM 39.4 °F 29.5 °F 35.1 °F 84% 29.47 in 7.0 mi West 20.7 mph 32.2 mph N/A   Light Drizzle
12:35 PM 39.2 °F 28.0 °F 35.6 °F 87% 29.46 in 7.0 mi West 26.5 mph 35.7 mph N/A   Drizzle
12:55 PM 38.3 °F 28.4 °F 35.8 °F 91% 29.45 in 4.0 mi West 19.6 mph 32.2 mph 0.01 in Rain Light Rain
1:15 PM 38.3 °F 26.8 °F 36.5 °F 93% 29.44 in 4.0 mi West 26.5 mph 33.4 mph 0.01 in Rain Rain
1:35 PM 38.1 °F 27.3 °F 37.0 °F 96% 29.44 in 5.0 mi West 23.0 mph 34.5 mph 0.02 in Rain Rain
1:55 PM 38.3 °F 27.3 °F 37.0 °F 95% 29.44 in 5.0 mi WNW 24.2 mph 33.4 mph 0.03 in Rain Light Rain
2:15 PM 37.6 °F 27.7 °F 36.7 °F 97% 29.44 in 3.0 mi West 18.4 mph 29.9 mph 0.02 in Rain Light Rain
2:35 PM 37.6 °F 26.9 °F 37.0 °F 98% 29.44 in 4.0 mi WNW 21.9 mph 35.7 mph 0.04 in Rain Light Rain
2:55 PM 37.4 °F 26.6 °F 36.7 °F 97% 29.45 in 3.0 mi WNW 21.9 mph 39.1 mph 0.05 in Rain Light Rain
3:15 PM 37.4 °F 27.2 °F 36.5 °F 97% 29.46 in 2.0 mi WNW 19.6 mph 36.8 mph 0.03 in Rain Rain
3:35 PM 37.4 °F 25.9 °F 37.4 °F 100% 29.47 in 3.0 mi WNW 25.3 mph 33.4 mph 0.04 in Rain Light Rain
3:55 PM 37.6 °F 25.9 °F 37.4 °F 99% 29.49 in 5.0 mi NW 26.5 mph 34.5 mph 0.05 in Rain Rain
4:15 PM 37.8 °F 26.6 °F 37.4 °F 99% 29.51 in 7.0 mi NW 24.2 mph 34.5 mph N/A   Drizzle
4:35 PM 37.9 °F 27.6 °F 37.6 °F 99% 29.52 in 10.0 mi NW 20.7 mph 32.2 mph N/A   Drizzle
4:55 PM 38.3 °F 27.3 °F 37.8 °F 98% 29.55 in 5.0 mi NW 24.2 mph 31.1 mph N/A   Light Drizzle
5:15 PM 38.3 °F 27.8 °F 37.9 °F 99% 29.57 in 5.0 mi NW 21.9 mph 35.7 mph N/A   Light Drizzle
5:35 PM 38.5 °F 28.3 °F 38.1 °F 99% 29.59 in 5.0 mi NW 20.7 mph 31.1 mph N/A   Drizzle
5:55 PM 38.7 °F 28.3 °F 37.9 °F 97% 29.62 in 10.0 mi NNW 21.9 mph 34.5 mph N/A   Light Drizzle
6:15 PM 39.0 °F 29.0 °F 37.9 °F 96% 29.65 in 10.0 mi NNW 20.7 mph 29.9 mph N/A   Light Drizzle
6:35 PM 39.0 °F 27.8 °F 37.9 °F 96% 29.68 in 10.0 mi NNW 26.5 mph 33.4 mph N/A Rain Rain
6:55 PM 39.2 °F 29.0 °F 38.3 °F 97% 29.70 in 10.0 mi NNW 21.9 mph 29.9 mph N/A   Light Drizzle
7:15 PM 39.4 °F 28.7 °F 38.3 °F 96% 29.71 in 10.0 mi NNW 24.2 mph 33.4 mph N/A   Overcast
7:35 PM 39.7 °F 29.7 °F 38.3 °F 95% 29.74 in 10.0 mi NNW 21.9 mph 33.4 mph N/A   Overcast
7:55 PM 39.6 °F 28.3 °F 38.3 °F 95% 29.75 in 10.0 mi NNW 27.6 mph 36.8 mph N/A   Light Drizzle
8:15 PM 39.6 °F 30.0 °F 37.9 °F 94% 29.77 in 10.0 mi NNW 19.6 mph 28.8 mph N/A   Overcast
8:35 PM 39.6 °F 29.5 °F 37.4 °F 92% 29.79 in 10.0 mi NNW 21.9 mph 31.1 mph N/A   Light Drizzle
8:55 PM 39.9 °F 29.5 °F 37.0 °F 89% 29.80 in 10.0 mi NNW 24.2 mph 38.0 mph N/A   Overcast
9:15 PM 39.7 °F 30.0 °F 37.2 °F 91% 29.81 in 10.0 mi NNW 20.7 mph 33.4 mph N/A   Light Drizzle
9:35 PM 40.5 °F 30.0 °F 36.9 °F 87% 29.82 in 10.0 mi NNW 25.3 mph 34.5 mph N/A   Overcast
9:55 PM 40.6 °F 30.2 °F 36.5 °F 85% 29.83 in 10.0 mi NNW 25.3 mph 29.9 mph N/A   Overcast
10:15 PM 41.0 °F 30.7 °F 36.7 °F 85% 29.84 in 10.0 mi NNW 25.3 mph 33.4 mph N/A   Overcast
10:35 PM 41.2 °F 30.9 °F 36.5 °F 83% 29.84 in 10.0 mi NNW 25.3 mph 32.2 mph N/A   Overcast
10:55 PM 41.4 °F 32.1 °F 36.1 °F 82% 29.85 in 10.0 mi NNW 20.7 mph 33.4 mph N/A   Overcast
11:15 PM 41.4 °F 32.4 °F 36.1 °F 82% 29.86 in 10.0 mi NNW 19.6 mph 28.8 mph N/A   Overcast
11:35 PM 41.4 °F 33.0 °F 36.0 °F 81% 29.87 in 10.0 mi NNW 17.3 mph 27.6 mph N/A   Overcast
11:55 PM 41.4 °F 32.4 °F 35.8 °F 81% 29.87 in 10.0 mi NNW 19.6 mph 27.6 mph N/A   Overcast